COSMOS 2307 (GLONASS)

Satellite information

Favourite Embed

Satellite Type and Status

PAYLOADIN ORBIT

Key statistics

Satellite COSMOS 2307 (GLONASS) at a glance.

Uptime

11192

Days in orbit

Revolutions

≈ 2.1

Per day

Orbit

MEO

Medium Earth Orbit

Inclination

64.2

Latest

Satellite identification and parameters

Extended collection of information and parameters for COSMOS 2307 (GLONASS).

Object identification

Identified? True

Debris? False

Object name: COSMOS 2307 (GLONASS)

International designator: 1995-009A

Object number (NORAD): 23511

Object ID (CCSDS): 23511

Country: COMMONWEALTH OF INDEPENDENT STATES (CIS)

Current information (Y/N): Y

RCS size: LARGE

Orbital parameters

Period: 675.722 minutes

Inclination: 64.1744 deg

SMA: 25507.751 km

Apoapsis: 19142.487 km

Periapsis: 19116.745 km

RAAN: 309.5632 deg

Eccentricy: 0.0005046

Argument of periapsis: 144.9746 deg

Mean anomaly: 330.4719 deg

Mean motion: 2.13105426 rev/day

Mean motion (dot): -0.0000002 rev/day2

B* drag term: 0.0 1/REarth

Two-line elements (TLE)

Creation date: Oct. 26, 2025, 2:54 a.m.

Reference frame: TEME

Reference center: EARTH

Epoch: Oct. 25, 2025, 8:14 a.m. UTC

TLE line 0: 0 COSMOS 2307 (GLONASS)

TLE line 1: 1 23511U 95009A 25298.34328309 -.00000020 00000-0 00000-0 0 9996

TLE line 2: 2 23511 64.1744 309.5632 0005046 144.9746 330.4719 2.13105426238192

Live tracking on map

Real-time ground track for satellite COSMOS 2307 (GLONASS).

In-orbit conjunctions

There are no conjunctions computed for COSMOS 2307 (GLONASS), at the moment. Check back to stay up to date, as we update our databases every day.

Go to all conjunctions

Associated space launch

GLONASS navigation satellites

COSMOS 2307 (GLONASS) was lifted into orbit during the mission ‘Proton | Uragan 63 to 65’, on board a Proton space rocket.

The launch took place on March 7, 1995, 9:23 a.m. from 200/39 (200L).

For more information about the launch, click the button.

Launch to space Proton | Uragan 63 to 65
Proton | Uragan 63 to 65

Agency: N/A

Status: Launch Successful

Launch date: March 7, 1995, 9:23 a.m. UTC

Rocket: Proton

Launch pad: 200/39 (200L)

Location: Baikonur Cosmodrome, Republic of Kazakhstan

...

Latest news about this satellite

There are no fresh news available about this satellite. Check back as we update our databases every day.


Newsletter sign-up

Weekly statistics, charts and insights to help you stay on top of the space industry.